Location: Solstice Park, West Seattle
(47.5363°N, 122.3905°W)
Time: 08:49:31
(UTC-07:00)

ISS - Pass Details

Date: 16 May 2021
Orbit: 417 x 422 km, 51.6° (Epoch: 18 June)

Event Time Altitude Azimuth Distance (km) Brightness Sun altitude
Rises 23:55:59 0° 267° (W) 2,364 0.3 -21.5°
Reaches altitude 10° 23:58:08 10° 274° (W) 1,502 -0.7 -21.6°
Maximum altitude 00:01:24 45° 349° (N) 581 -2.7 -21.7°
Drops below altitude 10° 00:04:41 10° 64° (ENE) 1,508 -0.8 -21.9°
Sets 00:06:50 0° 71° (ENE) 2,375 0.1 -22.0°
